Location: RyutenAO
(34.8939°N, 134.0022°E)
Time: 06:29:14
(UTC+09:00)

N. Korean satellite - Pass Details

Date: 03 December 2022
Orbit: 407 x 442 km, 97.3° (Epoch: 05 February)

Event Time Altitude Azimuth Distance (km) Brightness Sun altitude
Rises 17:19:48 0° 197° (SSW) 2,418 10.7 -5.9°
Reaches altitude 10° 17:22:09 10° 214° (SW) 1,567 10.1 -6.4°
Maximum altitude 17:24:43 20° 265° (W) 1,092 9.5 -6.9°
Drops below altitude 10° 17:27:21 10° 315° (NW) 1,602 9.5 -7.4°
Sets 17:29:48 0° 332° (NNW) 2,492 10.3 -7.8°
